Content
SEND FEEDBACK

Daily
Averages
Monthly
Summary
Netherlands

MAASTRICHT, NETHERLANDS


Home > Europe > Netherlands
Elevation: 380 feet     Latitude: 50 55N     Longitude: 005 47E

WEATHER
 
SELECT A DAY
Number of Records: 296,419;   Date Range: 7/1/96 - 4/22/14
 
SHARE

PRINT THIS DATA

[ ← Previous Day ]
WEATHER ALMANAC - JANUARY 1, 2013
[ Next Day → ]
[ °C ]   °F
Weather ElementAverageHighLow
Temperature42.7 °F46.4 °F (12:55 am)35.6 °F (8:55 pm)
Dewpoint40.3 °F44.6 °F (10:55 am)33.8 °F (8:55 pm)
Humidity90.4 %100 % (10:55 am)80 % (4:00 pm)
Barometer29.71 in29.95 in (11:25 pm)29.59 in (2:25 am)
Wind Speed14 mph24.6 mph (1:00 am)
Weather ElementAverage
Visibility7.3 mi
Wind DirectionSW (226.7 °)

Weather ElementTotal
Precipitation---
Heating Degree Days24 (Base 65)
Averaged from 55 records on January 1, 2013
WEATHER CONDITIONS BREAKOUT
WIND DIRECTION BREAKOUT
WEATHER BY HOUR - JANUARY 1, 2013
[ °C ]   °F
Local TimeTemperatureDewpointHumidityBarometerVisibilityWind DirectionWind SpeedGust SpeedPrecipitationEventsConditions
12:55 AM46.4 °F42.8 °F87 %29.62 in6.2 miSSW (210°)23.0 mphRainLight Rain
1:00 AM46.0 °F43.0 °F84 %29.65 in6.0 miSSW (200°)24.6 mphRainLight Rain
1:25 AM46.4 °F42.8 °F87 %29.62 in6.2 miSSW (210°)23.0 mphRainLight Rain
1:55 AM44.6 °F42.8 °F93 %29.62 in6.2 miSSW (210°)21.9 mphRainLight Rain
2:25 AM44.6 °F42.8 °F93 %29.59 in6.2 miSSW (210°)23.0 mphDrizzle
2:55 AM46.4 °F42.8 °F87 %29.59 in6.2 miSSW (210°)23.0 mphDrizzle
3:25 AM44.6 °F42.8 °F93 %29.59 in6.2 miSSW (210°)20.7 mphRainLight Rain
3:55 AM46.4 °F42.8 °F87 %29.59 in6.2 miSSW (210°)20.7 mphRainLight Drizzle
4:00 AM46.0 °F43.0 °F84 %29.62 in28.0 miSSW (210°)20.1 mphRainLight Drizzle
4:25 AM44.6 °F42.8 °F93 %29.59 in6.2 miSSW (210°)19.6 mphRainLight Rain
4:55 AM44.6 °F42.8 °F93 %29.59 in6.2 miSSW (210°)18.4 mphRainLight Rain
5:25 AM44.6 °F42.8 °F93 %29.59 in6.2 miSSW (200°)19.6 mphRainLight Rain
5:55 AM44.6 °F42.8 °F93 %29.59 in6.2 miSSW (200°)17.3 mphRainLight Rain
6:25 AM44.6 °F42.8 °F93 %29.59 in6.2 miSSW (200°)18.4 mphRainLight Rain
6:55 AM44.6 °F42.8 °F93 %29.59 in6.2 miSSW (210°)18.4 mphRainDrizzle
7:00 AM44.0 °F43.0 °F93 %29.61 in9.0 miSSW (210°)17.9 mphRainLight Rain
7:25 AM44.6 °F42.8 °F93 %29.59 in6.2 miSSW (210°)18.4 mphRainLight Rain
7:55 AM44.6 °F42.8 °F93 %29.59 in6.2 miSSW (200°)16.1 mphRainDrizzle
8:25 AM44.6 °F42.8 °F93 %29.59 in6.2 miSSW (200°)16.1 mphRainLight Rain
8:55 AM44.6 °F42.8 °F93 %29.59 in6.2 miSSW (200°)17.3 mphRainLight Rain
9:25 AM44.6 °F42.8 °F93 %29.59 in6.2 miSSW (200°)13.8 mphDrizzle
9:55 AM44.6 °F42.8 °F93 %29.59 in6.2 miSSW (200°)16.1 mphRainLight Rain
10:00 AM44.0 °F43.0 °F95 %29.62 in7.0 miSSW (210°)15.7 mphRainRain
10:25 AM44.6 °F42.8 °F93 %29.62 in3.7 miSSW (210°)16.1 mphRainLight Rain Showers
10:55 AM44.6 °F44.6 °F100 %29.62 in6.2 miSSW (210°)16.1 mphRainLight Rain
11:25 AM44.6 °F44.6 °F100 %29.62 in6.2 miSW (220°)15.0 mphDrizzle
11:55 AM46.4 °F44.6 °F93 %29.62 in6.2 miSW (220°)17.3 mphRainLight Rain
12:25 PM46.4 °F44.6 °F93 %29.65 in5.0 miSW (230°)13.8 mphRainLight Rain
12:55 PM46.4 °F44.6 °F93 %29.65 in6.2 miWest (280°)11.5 mphDrizzle
1:00 PM45.0 °F42.0 °F87 %29.69 in12.0 miWNW (300°)13.4 mphRainHeavy Drizzle
1:25 PM44.6 °F41.0 °F87 %29.68 in6.2 miWNW (300°)12.7 mphPartly Cloudy
1:55 PM42.8 °F41.0 °F93 %29.71 in6.2 miWest (280°)8.1 mphMostly Cloudy
2:25 PM42.8 °F41.0 °F93 %29.71 in6.2 miWest (260°)8.1 mphOvercast
2:55 PM42.8 °F41.0 °F93 %29.74 in6.2 miWest (270°)8.1 mphRainLight Rain
3:25 PM42.8 °F41.0 °F93 %29.74 in6.2 miWest (270°)6.9 mphOvercast
3:55 PM42.8 °F37.4 °F81 %29.77 in6.2 miWest (270°)8.1 mphPartly Cloudy
4:00 PM43.0 °F39.0 °F80 %29.80 in19.0 miWest (270°)8.9 mphRainDrizzle
4:25 PM42.8 °F37.4 °F81 %29.77 in6.2 miWest (260°)5.8 mphPartly Cloudy
4:55 PM41.0 °F37.4 °F87 %29.80 in6.2 miWSW (250°)5.8 mphScattered Clouds
5:25 PM41.0 °F35.6 °F81 %29.80 in6.2 miWSW (250°)6.9 mphPartly Cloudy
5:55 PM39.2 °F35.6 °F87 %29.80 in6.2 miWSW (240°)6.9 mph
6:25 PM39.2 °F35.6 °F87 %29.83 in6.2 miWSW (240°)6.9 mph
6:55 PM39.2 °F35.6 °F87 %29.83 in6.2 miSW (230°)6.9 mph
7:00 PM39.0 °F36.0 °F83 %29.88 in19.0 miSW (230°)6.7 mphPartly Cloudy
7:25 PM37.4 °F35.6 °F93 %29.86 in6.2 miSW (230°)10.4 mphPartly Cloudy
7:55 PM39.2 °F35.6 °F87 %29.86 in6.2 miSW (230°)8.1 mph
8:25 PM37.4 °F35.6 °F93 %29.89 in6.2 miSW (220°)9.2 mphMostly Cloudy
8:55 PM35.6 °F33.8 °F93 %29.89 in6.2 miSSW (210°)9.2 mphPartly Cloudy
9:25 PM37.4 °F35.6 °F93 %29.89 in6.2 miSW (220°)10.4 mph
9:55 PM37.4 °F33.8 °F87 %29.92 in6.2 miSW (220°)10.4 mphScattered Clouds
10:00 PM37.0 °F35.0 °F87 %29.94 in16.0 miSW (220°)11.2 mphScattered Clouds
10:25 PM37.4 °F35.6 °F93 %29.92 in6.2 miSW (220°)10.4 mphMostly Cloudy
10:55 PM37.4 °F35.6 °F93 %29.92 in6.2 miSW (220°)12.7 mphOvercast
11:25 PM39.2 °F35.6 °F87 %29.95 in6.2 miSW (220°)12.7 mphOvercast
11:55 PM37.4 °F35.6 °F93 %29.95 in6.2 miSW (230°)12.7 mphScattered Clouds
Hourly data recorded from EHBK, located 0.64 miles away from Maastricht, Netherlands







STORIES FROM OUR PARTNERS